Location: Bothwell
(41.7170°N, 112.2589°W)
Time: 03:26:24
(UTC+00:00)

Vanguard 2 - Pass Details

Date: 13 May 2026
Orbit: 553 x 2894 km, 32.9° (Epoch: 10 June)

Event Time Altitude Azimuth Distance (km) Brightness Sun altitude
Exits shadow 10:00:54 25° 221° (SW) 4,559 10.8 -19.9°
Maximum altitude 10:11:49 51° 162° (SSE) 3,246 10.4 -18.6°
Drops below altitude 10° 10:25:28 10° 93° (E) 4,741 12.1 -16.9°
Sets 10:28:47 0° 88° (E) 5,474 12.6 -16.4°
